Location: Aubrey
(33.1990°N, 85.1361°W)
Time: 14:44:58
(UTC+00:00)

N. Korean satellite - Visible Passes

Search period start: 20 September 2021 00:00
Search period end: 30 September 2021 00:00
Orbit: 448 x 498 km, 97.3° (Epoch: 19 September)

Date Brightness Start Highest point End Pass type
(mag) Time Alt. Az. Time Alt. Az. Time Alt. Az.
20 Sep 7.6 10:37:58 10° NNE 10:41:24 49° E 10:44:52 10° S visible
21 Sep 9.4 10:10:56 10° NE 10:13:36 20° E 10:16:18 10° SE visible
23 Sep 6.8 10:47:49 10° NNE 10:51:22 73° E 10:54:57 10° S visible
24 Sep 8.8 10:20:30 10° NE 10:23:35 27° E 10:26:42 10° SSE visible
25 Sep 10.0 09:54:22 10° ENE 09:55:42 12° E 09:57:02 10° ESE visible
26 Sep 6.5 10:57:42 10° N 11:01:17 79° WNW 11:04:53 10° SSW visible
27 Sep 8.2 10:30:08 10° NNE 10:33:30 38° E 10:36:54 10° SSE visible
28 Sep 9.7 10:03:19 10° NE 10:05:38 16° E 10:07:57 10° SE visible
